Back to catalog

COSMOS 2080

GLONASS

AliveNavigationMEO
NORAD 20620·PAYLOAD·🇷🇺 Russia

Launched May 19, 1990 from Baikonur Cosmodrome

Loading…

Next Passes (next 24 hours)

TLE

FreshSource: Space-Track

Epoch: Sep 14, 2026, 12:42 UTC

1 20620U 90045B   26257.52920205 -.00000044  00000-0  00000+0 0  9993
2 20620  64.6463 305.2459 0023094  26.7594 334.9612  2.13103078282511

Track COSMOS 2080 in real time with AllMySat

Download on the App Store